User: anonymous   Login
Location: Altenst�hlen
(53.5567°N, 8.9425°E)
Time: 21:11:55
(UTC+00:00)
Language:

Timation 2 Rocket - Orbit

View from above orbital plane
View from above orbital plane
View from above satellite
View from above satellite

Ground track
Ground track

The orbit data is extracted from the following two-line orbital elements,

1  4159U 69082AB  19343.51322396 -.00000041  00000-0  87853-5 0  9997
2  4159  69.9626  92.7166 0113487  42.2233 318.7529 13.72428775512302
Epoch (UTC): 09 December 2019 12:19:02
Eccentricity: 0.0113487
inclination: 69.9626°
perigee height: 907 km
apogee height: 1074 km
right ascension of ascending node: 92.7166°
argument of perigee: 42.2233°
revolutions per day: 13.72428775
mean anomaly at epoch: 318.7529°
orbit number at epoch: 51230

The dashed part of the orbit path shows where the satellite is in the earth's shadow,  

DLR